Change the Weather History Date:

Saturday, January 14, 2012

  Actual Average Record
Temperature  
Mean Temperature 20 °F -  
Max Temperature 28 °F 26 °F 64 °F (2005)
Min Temperature 9 °F 11 °F -15 °F (2015)
Degree Days  
Heating Degree Days 45    
Moisture  
Dew Point 10 °F    
Average Humidity 62    
Maximum Humidity 74    
Minimum Humidity 45    
Precipitation  
Precipitation 0.00 in - - ()
Sea Level Pressure  
Sea Level Pressure 29.83 in    
Wind  
Wind Speed 14 mph (West)    
Max Wind Speed 18 mph    
Max Gust Speed 31 mph    
Visibility 6 miles    
Events Snow    
Averages and records for this station are not official NWS values.
T = Trace of Precipitation, MM = Missing Value Source: NWS Daily Summary

Daily Weather History Graph

Daily Weather History Graph

Search for Another Location

Airport or City:

Trip Planner

Search our weather history database for the weather conditions in past years. The results will help you decide how hot, cold, wet, or windy it might be!

Date:

Astronomy

Jan. 14, 2012 Rise Set
Actual Time 7:20 AM EST 4:42 PM EST
Civil Twilight 6:49 AM EST 5:13 PM EST
Nautical Twilight 6:14 AM EST 5:48 PM EST
Astronomical Twilight 5:40 AM EST 6:22 PM EST
Moon 11:10 PM EST (1/14) 9:55 AM EST (1/14)
Length of Visible Light 10h 24m
Length of Day
9h 21m
Waning Gibbous, 69% of the Moon is Illuminated
Jan 14
Waning Gibbous
Jan 16
Last Quarter
Jan 23
New
Jan 30
First Quarter
Feb 7
Full

Hourly Weather History & Observations

Time (EST) Temp. Windchill Dew Point Humidity Pressure Visibility Wind Dir Wind Speed Gust Speed Precip Events Conditions
12:52 AM 28.0 °F 15.3 °F 16.0 °F 61% 29.63 in 10.0 mi West 18.4 mph 29.9 mph N/A   Overcast
1:52 AM 28.0 °F 17.0 °F 15.1 °F 58% 29.67 in 10.0 mi West 13.8 mph 24.2 mph N/A   Overcast
2:52 AM 27.0 °F 17.3 °F 15.1 °F 61% 29.70 in 10.0 mi West 10.4 mph 17.3 mph N/A   Overcast
3:52 AM 27.0 °F 16.1 °F 15.1 °F 61% 29.71 in 10.0 mi West 12.7 mph - N/A   Overcast
4:52 AM 26.1 °F 15.6 °F 15.1 °F 63% 29.71 in 10.0 mi West 11.5 mph - 0.00 in   Overcast
5:10 AM 26.6 °F 15.7 °F 15.8 °F 64% 29.69 in 5.0 mi West 12.7 mph 23.0 mph 0.00 in Snow Light Snow
5:52 AM 25.0 °F 12.2 °F 15.1 °F 66% 29.74 in 7.0 mi West 16.1 mph 23.0 mph 0.00 in Snow Light Snow
6:08 AM 24.8 °F 12.9 °F 15.8 °F 69% 29.72 in 2.0 mi West 13.8 mph 25.3 mph 0.00 in Snow Light Snow
6:20 AM 24.8 °F 12.4 °F 15.8 °F 69% 29.72 in 4.0 mi West 15.0 mph 27.6 mph 0.00 in Snow Light Snow
6:47 AM 24.8 °F 11.9 °F 15.8 °F 69% 29.74 in 2.5 mi West 16.1 mph 26.5 mph 0.00 in Snow Light Snow
6:52 AM 24.1 °F 11.5 °F 15.1 °F 69% 29.77 in 2.0 mi West 15.0 mph 24.2 mph 0.00 in Snow Light Snow
7:33 AM 23.0 °F 10.6 °F 15.8 °F 74% 29.77 in 1.5 mi West 13.8 mph 21.9 mph 0.00 in Snow Light Snow
7:52 AM 21.9 °F 9.2 °F 12.9 °F 68% 29.82 in 1.0 mi West 13.8 mph 27.6 mph 0.00 in Snow Light Snow
7:59 AM 21.2 °F 7.3 °F 14.0 °F 74% 29.79 in 0.8 mi West 16.1 mph 21.9 mph 0.00 in Snow Light Snow
8:12 AM 21.2 °F 8.9 °F 14.0 °F 74% 29.81 in 1.0 mi West 12.7 mph - 0.00 in Snow Light Snow
8:31 AM 21.2 °F 10.9 °F 14.0 °F 74% 29.82 in 0.8 mi West 9.2 mph 19.6 mph 0.00 in Snow Light Snow
8:50 AM 21.2 °F 7.3 °F 14.0 °F 74% 29.83 in 0.8 mi West 16.1 mph 23.0 mph 0.00 in Snow Light Snow
8:52 AM 21.0 °F 7.1 °F 12.9 °F 71% 29.86 in 0.8 mi West 16.1 mph 23.0 mph 0.00 in Snow Light Snow
9:01 AM 21.2 °F 7.8 °F 12.2 °F 68% 29.84 in 1.0 mi West 15.0 mph 23.0 mph 0.00 in Snow Light Snow
9:31 AM 21.2 °F 8.3 °F 12.2 °F 68% 29.85 in 2.0 mi West 13.8 mph - 0.00 in Snow Light Snow
9:52 AM 21.0 °F 7.1 °F 12.0 °F 68% 29.88 in 2.0 mi West 16.1 mph 26.5 mph 0.00 in Snow Light Snow
10:01 AM 21.2 °F 7.8 °F 10.4 °F 63% 29.84 in 6.0 mi West 15.0 mph 24.2 mph 0.00 in Snow Light Snow
10:52 AM 21.9 °F 8.2 °F 9.0 °F 58% 29.86 in 8.0 mi West 16.1 mph 31.1 mph 0.00 in   Scattered Clouds
12:52 PM 23.0 °F 13.1 °F 5.0 °F 46% 29.87 in 10.0 mi West 9.2 mph - N/A   Mostly Cloudy
1:52 PM 21.9 °F 9.8 °F 5.0 °F 48% 29.88 in 10.0 mi West 12.7 mph 21.9 mph N/A   Clear
2:52 PM 21.0 °F 9.9 °F 3.0 °F 46% 29.92 in 10.0 mi West 10.4 mph 21.9 mph N/A   Clear
4:52 PM 18.0 °F 4.8 °F -0.0 °F 45% 29.95 in 10.0 mi West 12.7 mph - N/A   Clear
5:52 PM 16.0 °F 1.7 °F 1.0 °F 52% 29.98 in 10.0 mi West 13.8 mph - N/A   Clear
6:52 PM 15.1 °F -0.1 °F -0.9 °F 49% 30.00 in 10.0 mi West 15.0 mph 23.0 mph N/A   Clear
7:52 PM 14.0 °F -2.5 °F -2.0 °F 49% 30.02 in 10.0 mi West 17.3 mph 24.2 mph N/A   Clear
8:52 PM 12.0 °F -2.7 °F -0.9 °F 56% 30.05 in 10.0 mi West 12.7 mph 20.7 mph N/A   Clear
11:52 PM 9.0 °F -2.2 °F -2.9 °F 59% 30.09 in 10.0 mi West 6.9 mph - N/A   Clear